Flag Weather past 2 weeks in Albany, Western Australia, Australia

Now
48 °F

Passing clouds.


Feels Like: 45 °F
Forecast: 49 / 65 °F
Wind: 6 mph from West

Location: Albany Airport

Current Time: Nov 24, 2014 at 1:45:20 AM

Latest Report: Nov 24, 2014 at 12:00 AM


Visibility: N/A

Pressure: 30.17 "Hg

Humidity: 82%

Dew point: 43 °F

Location of AlbanyLocation

Historic Weather in Albany — Graph

°F

Albany temperature yesterday

Maximum temperature yesterday: 63 °F (at 2:00 PM)
Minimum temperature yesterday: 47 °F (at 11:00 PM)
Average temperature yesterday: 57 °F

Past Weeks' High & Low Weather Summary

 TemperatureHumidityPressure
High85 °F (Nov 10, 3:00 PM)99% (Nov 9, 3:00 AM)30.38 "Hg (Nov 9, 3:00 AM)
Low42 °F (Nov 15, 5:00 AM)34% (Nov 20, 3:00 PM)29.72 "Hg (Nov 20, 3:00 PM)
Average59 °F74%29.99 "Hg
* Reported Midnight between Nov 8 and Nov 9 — Midnight between Nov 23 and Nov 24, Albany, Weather by CustomWeather, © 2014

Note: Actual official high and low records may vary slightly from our data, if they occured in-between our weather recording intervals... More about our weather records

Advertising

Albany weather history for previous 24 hours

 ConditionsComfort  
Time TempWeatherWind HumidityBarometerVisibility
12:00 AM
Nov 24
48 °FPassing clouds.6 mph82%30.17 "HgN/A
11:00 PM
Nov 23
47 °FCool.6 mph84%30.17 "HgN/A
9:00 PM54 °FOvercast.7 mph66%30.17 "HgN/A
8:00 PM54 °FCool.7 mph65%30.14 "HgN/A
6:00 PM58 °FOvercast.13 mph53%30.10 "HgN/A
5:00 PM59 °FRefreshingly cool.16 mph54%30.06 "HgN/A
3:00 PM58 °FPartly sunny.21 mph60%30.05 "Hg19 mi
2:00 PM63 °FMild.20 mph36%30.03 "HgN/A
12:00 PM61 °FOvercast.21 mph48%30.02 "Hg16 mi
11:00 AM61 °FRefreshingly cool.20 mph47%30.01 "HgN/A
9:00 AM61 °FOvercast.20 mph45%29.99 "Hg12 mi
8:00 AM58 °FCool.13 mph69%29.96 "HgN/A
6:00 AM54 °FPartly sunny.10 mph92%29.92 "Hg12 mi
5:00 AM53 °FCool.9 mph95%29.89 "HgN/A
3:00 AM54 °FOvercast.13 mph91%29.87 "HgN/A
2:00 AM53 °FCool.12 mph87%29.85 "HgN/A
Weather by CustomWeather, © 2014

See weather overviewHow to use our weather pages